Regional Weather Roundup
Issued by NWS Northern Indiana

Home | Current Version | Previous Version | Graphics & Text | Print | Product List | Glossary On
Versions: 1 2 3 4 5 6 7 8 9 10 11 12 13 14 15 16 17 18 19 20 21 22 23 24 25 26 27 28 29 30 31 32 33 34 35 36 37 38 39 40 41 42 43 44 45 46 47 48 49 50
000
ASUS43 KIWX 290310
RWRIWX

KIWX WEATHER ROUNDUP
NATIONAL WEATHER SERVICE NORTHERN INDIANA
1100 PM EDT TUE JUL 28 2015

NOTE: "FAIR" INDICATES FEW OR NO CLOUDS BELOW 12,000 FEET WITH NO
SIGNIFICANT WEATHER AND/OR OBSTRUCTIONS TO VISIBILITY.

* THESE STATIONS ARE NOT UNDER NWS QUALITY CONTROL. THEY ALSO MAY NOT
  REPORT WEATHER SUCH AS PRECIPITATION OR FOG.

INZ001>027-290400-
NORTHERN INDIANA

CITY           SKY/WX    TMP DP  RH WIND       PRES   REMARKS
GARY*          PTCLDY    77  73  88 CALM      29.96R
VALPARAISO     LGT RAIN  77  73  87 CALM      29.98R
MICHIGAN CITY* PTCLDY    73  73 100 CALM      29.98R
LAPORTE*       PTCLDY    77  77 100 CALM      29.99R
KNOX*          CLEAR     77  73  88 SE3       29.97R
SOUTH BEND     CLEAR     81  71  71 SE3       29.99R
GOSHEN         CLEAR     75  71  87 CALM      29.99R
MONTICELLO*    PTCLDY    78  77  96 CALM      29.97R
LOGANSPORT*    CLEAR     75  70  83 CALM      29.99R
ROCHESTER*     CLEAR     79  73  83 CALM      30.00R
WARSAW*        PTCLDY    73  72  94 CALM      30.00R
ANGOLA*        CLEAR     73  66  78 CALM      30.02R
FORT WAYNE     PTCLDY    78  72  81 CALM      30.01R
HUNTINGTON*    CLEAR     76  74  93 CALM      30.00R
PERU/GRISSOM   CLEAR     79  73  83 S2        29.98R
MARION*        CLEAR     76  73  90 CALM      30.00R

$$
INZ028>050-290400-
CENTRAL INDIANA

CITY           SKY/WX    TMP DP  RH WIND       PRES   REMARKS
LAFAYETTE      CLOUDY    77  76  96 CALM      29.98R FOG
KOKOMO*        CLEAR     79  72  78 CALM      30.00R
MUNCIE*        CLEAR     76  73  91 SE5       30.00R
INDIANAPOLIS   PTCLDY    82  73  74 CALM      29.98R

$$
MIZ043>046-050>051-056>058-064>065-071>073-077>080-290400-
SOUTHWEST LOWER MICHIGAN

CITY           SKY/WX    TMP DP  RH WIND       PRES   REMARKS
BATTLE CREEK   PTCLDY    77  66  68 SE3       30.01R
BENTON HARBOR  PTCLDY    76  71  85 E5        29.96S
COLDWATER*     PTCLDY    73  65  76 SE3       30.01R
HILLSDALE*     CLEAR     74  66  75 SE3       30.03R
HOLLAND        PTCLDY    76  69  79 SE5       29.98R
GRAND RAPIDS   MOCLDY    76  67  73 S6        29.99R
KALAMAZOO      PTCLDY    75  66  73 CALM      30.00R
STURGIS*       CLEAR     73  68  83 E3        30.00R
THREE RIVERS*  FAIR      76  70  82 CALM      30.00R

$$
OHZ001>008-015>018-024>025-290400-
NORTHWEST OHIO

CITY           SKY/WX    TMP DP  RH WIND       PRES   REMARKS
WAUSEON*       FAIR      72  68  88 CALM      30.02R
DEFIANCE       PTCLDY    76  66  71 E5        30.01R
FINDLAY        CLEAR     77  65  66 E9        29.99R
TOLEDO EXPRESS CLEAR     70  65  84 CALM      30.01R
TOLEDO METCALF CLEAR     74  65  73 E3        30.01R
LIMA           CLEAR     74  67  78 NE3       30.02R

$$
AND FOR LAKE MICHIGAN COASTAL AND OPEN LAKE BUOY OBSERVATIONS

STATION/POSITION TEMP    WIND        PRES    VSBY  WAVE
                 AIR SEA DIR/SP/G                  HT/PER
                 (F)     (DEG/KT/KT) (MB)    (MI)  (FT/S)
CALUMET HARBOR    85     210/  2/  4   N/A
MICHIGAN CITY     84     120/  5/  7   N/A
BURNS HARBOR      85     180/  4/  5 1014.6R
SAINT JOSEPH      79      CALM  /  2 1015.6R
4 MI NW BRIDGMAN  78 77  180/  4/  6   N/A           0
MICHIGAN CITY     78 76  170/  4/  6   N/A           0

$$
&&


USA.gov is the U.S. government's official web portal to all federal, state and local government web resources and services.